TANDEM-X

Last updated on Fri Jul 11 2025 00:02:28 GMT+0000 (Coordinated Universal Time)

1 36605U 10030A 25190.80844852 .00000329 00000+0 18868-4 0 9998 2 36605 97.4457 198.4137 0001648 90.9904 269.1519 15.19150529834669
UTC large
Height (km)
Speed (km/s)
/
Latitude / Longitude
Inclination (degrees)
Orbital Period (minutes)
Azimuth
Elevation
Range (km)
Doppler Factor

Next 0 passes for location: London (51.5072 / 0.1276)

Sorry there are no passes over London.